Flag for U.S.A. Weather past 2 weeks in Midland, Texas, U.S.A.

Now
87 °F

Partly sunny.


Feels Like: 88 °F
Forecast: 77 / 100 °F
Wind: 20 mph from East

Location: Midland - Midland Airpark

Current Time: Jul 29, 2014 at 8:20:20 PM

Latest Report: Jul 29, 2014 at 7:55 PM


Visibility: 10 mi

Pressure: 30.04 "Hg

Humidity: 46%

Dew point: 64 °F

Location of MidlandLocation

Historic Weather in Midland — Graph

°F

Midland temperature yesterday

Maximum temperature yesterday: 97 °F (at 2:15 PM)
Minimum temperature yesterday: 78 °F (at 7:15 AM)
Average temperature yesterday: 86 °F

Past Weeks' High & Low Weather Summary

 TemperatureHumidityPressure
High101 °F (Jul 26, 4:35 PM)91% (Jul 17, 10:35 AM)30.25 "Hg (Jul 17, 10:35 AM)
Low68 °F (Jul 18, 5:35 AM)18% (Jul 14, 6:10 PM)29.88 "Hg (Jul 16, 6:55 PM)
Average84 °F49%30.07 "Hg
* Reported Jul 14 6:10 PM — Jul 29 6:55 PM, Midland, Weather by CustomWeather, © 2014

Note: Actual official high and low records may vary slightly from our data, if they occured in-between our weather recording intervals... More about our weather records

Advertising

Midland weather history for previous 24 hours

 ConditionsComfort  
Time TempWeatherWind HumidityBarometerVisibility
6:55 PM
Jul 29
96 °FScattered clouds.10 mph20%30.04 "Hg10 mi
6:35 PM96 °FScattered clouds.10 mph21%30.04 "Hg10 mi
6:15 PM96 °FSunny.8 mph22%30.04 "Hg10 mi
5:55 PM96 °FSunny.9 mph20%30.04 "Hg10 mi
5:35 PM96 °FSunny.6 mph21%30.04 "Hg10 mi
5:15 PM97 °FSunny.12 mph21%30.06 "Hg10 mi
4:55 PM97 °FScattered clouds.8 mph21%30.07 "Hg10 mi
4:35 PM97 °FScattered clouds.9 mph22%30.08 "Hg10 mi
4:15 PM97 °FSunny.5 mph22%30.09 "Hg10 mi
3:55 PM95 °FScattered clouds.10 mph24%30.10 "Hg10 mi
3:35 PM96 °FScattered clouds.7 mph25%30.11 "Hg10 mi
3:15 PM96 °FBroken clouds.8 mph25%30.12 "Hg10 mi
2:55 PM93 °FScattered clouds.6 mph27%30.13 "Hg10 mi
2:35 PM94 °FScattered clouds.8 mph27%30.13 "Hg10 mi
2:15 PM93 °FBroken clouds.9 mph28%30.14 "Hg10 mi
1:55 PM95 °FScattered clouds.9 mph27%30.15 "Hg10 mi
1:35 PM92 °FScattered clouds.3 mph30%30.16 "Hg10 mi
1:15 PM92 °FScattered clouds.7 mph30%30.16 "Hg10 mi
12:55 PM91 °FSunny.No wind32%30.17 "Hg10 mi
12:35 PM91 °FSunny.3 mph32%30.18 "Hg10 mi
12:15 PM90 °FSunny.10 mph34%30.19 "Hg10 mi
11:55 AM89 °FSunny.7 mph40%30.19 "Hg10 mi
11:35 AM88 °FSunny.8 mph43%30.20 "Hg7 mi
11:15 AM86 °FSunny.6 mph46%30.20 "Hg7 mi
10:55 AM85 °FSunny.3 mph49%30.20 "Hg7 mi
10:35 AM83 °FSunny.5 mph53%30.20 "Hg7 mi
10:15 AM81 °FSunny.3 mph57%30.21 "Hg7 mi
9:55 AM80 °FSunny.8 mph59%30.20 "Hg5 mi
9:35 AM79 °FSunny.7 mph62%30.20 "Hg5 mi
9:15 AM78 °FSunny.7 mph64%30.21 "Hg7 mi
8:55 AM76 °FSunny.8 mph68%30.21 "Hg7 mi
8:35 AM76 °FSunny.7 mph69%30.21 "Hg7 mi
8:15 AM75 °FSunny.8 mph71%30.21 "Hg7 mi
7:55 AM74 °FClear.6 mph73%30.20 "Hg5 mi
7:35 AM73 °FClear.6 mph75%30.20 "Hg7 mi
7:15 AM73 °FClear.5 mph75%30.20 "Hg10 mi
6:55 AM73 °FClear.5 mph75%30.19 "Hg10 mi
6:35 AM74 °FClear.5 mph72%30.19 "Hg10 mi
6:15 AM74 °FClear.5 mph71%30.18 "Hg10 mi
5:55 AM75 °FClear.5 mph70%30.18 "Hg10 mi
5:35 AM76 °FClear.6 mph69%30.17 "Hg10 mi
5:15 AM76 °FClear.6 mph68%30.17 "Hg10 mi
4:55 AM77 °FClear.6 mph67%30.17 "Hg10 mi
4:35 AM77 °FClear.7 mph65%30.17 "Hg10 mi
4:15 AM77 °FClear.6 mph65%30.17 "Hg10 mi
3:55 AM78 °FClear.8 mph63%30.18 "Hg10 mi
3:35 AM78 °FClear.8 mph62%30.18 "Hg10 mi
3:15 AM79 °FClear.9 mph61%30.19 "Hg10 mi
2:55 AM79 °FClear.7 mph61%30.19 "Hg10 mi
2:35 AM79 °FClear.7 mph61%30.19 "Hg10 mi
2:15 AM80 °FClear.6 mph60%30.19 "Hg10 mi
1:55 AM80 °FClear.7 mph60%30.19 "Hg10 mi
1:35 AM80 °FClear.8 mph60%30.19 "Hg10 mi
1:15 AM81 °FClear.7 mph58%30.19 "Hg10 mi
12:55 AM81 °FClear.9 mph58%30.19 "Hg10 mi
12:35 AM81 °FClear.7 mph57%30.19 "Hg10 mi
12:15 AM82 °FClear.8 mph55%30.19 "Hg10 mi
11:55 PM
Jul 28
82 °FClear.8 mph55%30.19 "Hg10 mi
11:35 PM83 °FClear.10 mph53%30.19 "Hg10 mi
11:15 PM83 °FClear.12 mph52%30.19 "Hg10 mi
10:55 PM83 °FClear.15 mph52%30.19 "Hg10 mi
10:35 PM84 °FClear.13 mph52%30.18 "Hg10 mi
10:15 PM84 °FClear.13 mph50%30.18 "Hg10 mi
9:55 PM84 °FClear.14 mph51%30.17 "Hg10 mi
9:35 PM85 °FSunny.13 mph49%30.16 "Hg10 mi
9:15 PM85 °FSunny.12 mph48%30.15 "Hg10 mi
8:55 PM86 °FSunny.15 mph47%30.14 "Hg10 mi
8:15 PM88 °FSunny.15 mph43%30.14 "Hg10 mi
Weather by CustomWeather, © 2014

See weather overviewHow to use our weather pages